{"data":{"norad_id":62010,"epoch":"2026-09-21T20:23:56.417856Z","epoch_age_seconds":68919,"freshness":"FRESH","line1":"1 62010U 24213C   26264.84995854  .00213867  00000+0  17194-2 0  9993","line2":"2 62010  53.1567 154.3146 0000891 121.8571 238.2533 15.69788999105727","mean_motion":15.69788999,"eccentricity":8.91e-5,"inclination_deg":53.1567,"raan_deg":154.3146,"arg_perigee_deg":121.8571,"mean_anomaly_deg":238.2533,"bstar":0.0017194,"rev_number":10572,"period_min":91.732073604626,"perigee_km":358.90037148294,"apogee_km":360.10101852019,"semimajor_km":6737.6376950016,"source":"CELESTRAK","updated_at":"2026-09-22T09:00:49.482448Z"}}